Weather History for KAKQ - February, 2013

Change the Weather History Date:

Thursday, February 14, 2013

  Actual Average (KJGG) Record (KJGG)
Temperature  
Mean Temperature 39 °F -  
Max Temperature 48 °F 52 °F 77 °F (1989)
Min Temperature 30 °F 29 °F 11 °F (1955)
Degree Days  
Heating Degree Days 26    
Moisture  
Dew Point 33 °F    
Average Humidity 81    
Maximum Humidity 93    
Minimum Humidity 44    
Precipitation  
Precipitation 0.00 in - - ()
Sea Level Pressure  
Sea Level Pressure 29.97 in    
Wind  
Wind Speed 3 mph (NW)    
Max Wind Speed 7 mph    
Max Gust Speed -    
Visibility 7 miles    
Events      
Averages and records for this station are not official NWS values.
T = Trace of Precipitation, MM = Missing Value Source: NWS Daily Summary

Daily Weather History Graph

Daily Weather History Graph

Search for Another Location

Airport or City:

Trip Planner

Search our weather history database for the weather conditions in past years. The results will help you decide how hot, cold, wet, or windy it might be!

Date:

Astronomy

Feb. 14, 2013 Rise Set
Actual Time 6:57 AM EST 5:47 PM EST
Civil Twilight 6:30 AM EST 6:14 PM EST
Nautical Twilight 6:00 AM EST 6:44 PM EST
Astronomical Twilight 5:30 AM EST 7:14 PM EST
Moon 9:06 AM EST (2/14) 10:39 PM EST (2/14)
Length of Visible Light 11h 43m
Length of Day
10h 49m
Waxing Crescent, 21% of the Moon is Illuminated
Feb 14
Waxing Crescent
Feb 17
First Quarter
Feb 25
Full
Mar 4
Last Quarter
Mar 11
New

Hourly Weather History & Observations

Time (EST) Temp. Windchill Dew Point Humidity Pressure Visibility Wind Dir Wind Speed Gust Speed Precip Events Conditions
12:07 AM 42.8 °F 38.6 °F 37.4 °F 81% 29.78 in 10.0 mi Variable 6.9 mph - N/A   Overcast
12:50 AM 41.0 °F 38.0 °F 37.4 °F 87% 29.81 in 10.0 mi NNW 4.6 mph - N/A   Overcast
12:54 AM 41.0 °F 37.1 °F 37.9 °F 89% 29.82 in 10.0 mi NNW 5.8 mph - N/A   Overcast
1:17 AM 39.2 °F 35.0 °F 35.6 °F 87% 29.83 in 10.0 mi Variable 5.8 mph - N/A   Scattered Clouds
1:34 AM 39.2 °F 35.9 °F 35.6 °F 87% 29.83 in 10.0 mi Variable 4.6 mph - N/A   Mostly Cloudy
1:54 AM 39.0 °F 36.8 °F 35.1 °F 86% 29.86 in 10.0 mi Variable 3.5 mph - N/A   Mostly Cloudy
2:22 AM 39.2 °F 37.0 °F 35.6 °F 87% 29.85 in 10.0 mi North 3.5 mph - N/A   Mostly Cloudy
2:54 AM 37.9 °F 35.5 °F 35.1 °F 89% 29.88 in 9.0 mi Variable 3.5 mph - N/A   Mostly Cloudy
3:17 AM 37.4 °F - 33.8 °F 87% 29.87 in 9.0 mi Calm Calm - N/A   Scattered Clouds
3:54 AM 36.0 °F - 33.1 °F 89% 29.90 in 6.0 mi Calm Calm - N/A   Clear
4:31 AM 33.8 °F - 30.2 °F 87% 29.91 in 2.5 mi Calm Calm - N/A   Clear
4:54 AM 33.1 °F - 30.0 °F 89% 29.94 in 2.5 mi Calm Calm - N/A   Clear
5:51 AM 30.2 °F - 28.4 °F 93% 29.95 in 1.8 mi Calm Calm - N/A   Clear
5:54 AM 30.9 °F - 28.9 °F 92% 29.96 in 2.0 mi Calm Calm - N/A   Clear
6:51 AM 30.2 °F - 28.4 °F 93% 29.97 in 1.5 mi Calm Calm - N/A   Clear
6:54 AM 30.0 °F - 28.0 °F 92% 29.98 in 1.5 mi Calm Calm - N/A   Clear
7:54 AM 33.1 °F - 30.9 °F 92% 30.00 in 1.2 mi Calm Calm - N/A   Clear
8:19 AM 35.6 °F - 33.8 °F 93% 30.01 in 2.0 mi Calm Calm - N/A   Clear
8:47 AM 37.4 °F - 35.6 °F 93% 30.02 in 3.0 mi Calm Calm - N/A   Clear
8:54 AM 37.0 °F - 35.1 °F 93% 30.03 in 3.0 mi Calm Calm - N/A   Clear
9:54 AM 44.1 °F 40.8 °F 33.1 °F 65% 30.07 in 10.0 mi NE 5.8 mph - N/A   Clear
10:54 AM 46.0 °F - 32.0 °F 58% 30.05 in 10.0 mi Calm Calm - N/A   Clear
11:54 AM 46.9 °F - 32.0 °F 56% 30.05 in 10.0 mi NNW 4.6 mph - N/A   Partly Cloudy
12:54 PM 48.9 °F - 28.0 °F 44% 30.02 in 10.0 mi Calm Calm - N/A   Mostly Cloudy
1:54 PM 48.9 °F - 30.9 °F 50% 30.02 in 10.0 mi Calm Calm - N/A   Overcast
2:54 PM 48.0 °F - 32.0 °F 54% 30.03 in 10.0 mi WSW 6.9 mph - N/A   Mostly Cloudy
3:54 PM 48.9 °F - 32.0 °F 52% 30.02 in 10.0 mi Variable 3.5 mph - N/A   Mostly Cloudy
4:54 PM 48.0 °F - 33.1 °F 56% 30.02 in 10.0 mi SSW 4.6 mph - N/A   Clear
5:54 PM 42.1 °F - 35.1 °F 76% 30.02 in 10.0 mi Calm Calm - N/A   Clear
6:54 PM 37.9 °F - 34.0 °F 86% 30.04 in 10.0 mi Calm Calm - N/A   Clear
7:54 PM 37.0 °F - 34.0 °F 89% 30.05 in 10.0 mi Calm Calm - N/A   Clear
8:54 PM 36.0 °F - 33.1 °F 89% 30.06 in 10.0 mi Calm Calm - N/A   Clear
9:54 PM 34.0 °F - 32.0 °F 92% 30.08 in 7.0 mi Calm Calm - N/A   Clear
10:54 PM 33.1 °F - 30.9 °F 92% 30.09 in 6.0 mi Calm Calm - N/A   Clear
11:54 PM 32.0 °F - 30.0 °F 92% 30.08 in 5.0 mi Calm Calm - N/A   Clear